Simultaneous Nadir Overpasses (SNOs) Predictions

Prediction of SNOs over PacNW region [( 10.00, 139.50) to ( 22.70, 165.60)] between AQUA and NPP Satellites:

Table of predicted SNOs over PacNW region for the next 30.0 days since TLE Epoch: 7/1/2023
Index Date (AQUA) Time (AQUA) AQUA Lat,Lon Date (NPP) Time (NPP) NPP Lat,Lon Distance(km) Time Diff (sec)
1 07/01/2023 15:19:56 20.38, 160.68 07/01/2023 15:19:18 21.37, 155.28 572.20 38
2 07/04/2023 03:38:37 22.70, 149.48 07/04/2023 03:35:07 22.88, 144.21 539.93 210
3 07/17/2023 02:54:20 22.66, 160.69 07/17/2023 02:50:51 23.12, 155.20 565.14 209
